STARLINK-34032, 63853

Orbit data source: Space-Track

STARLINK-34032, 63853 is a payload satellite owned by SpaceX/Seattle (US) in LEO that was launched on Wed, 07 May 2025 UTC via an FALCON 9 launch vehicle from the Air Force Eastern Test Range (AFETR). Payload-class satellites include a variety of spacecraft equipped with specific instruments for various scientific and technological missions. These include communications satellites like Starlink; space stations such as the ISS; scientific satellites like the Hubble; Earth observation satellites from companies like Planet Labs, Umbra, and HawkEye 360; GPS; miniature CubeSats for education and research; and military/defense satellites.

Loading next visibility...
Identifier
63853, 2025-093T
Orbit
LEO
Country
Flag of USUS
Related business
Manufacturer
SpaceX/Seattle
Mission
Operational Commercial Communications
Bus & Motor
STARLINK V2MO, Unknown motor
Mass
575 kg wet, ~530 kg dry
Launch date (UTC)
2025-05-07 (7 months ago)
Launch vehicle
FALCON 9
Launch site
Air Force Eastern Test Range (AFETR)
Object type
Payload
Rocket body
Debris
Shape & HBR
Box + 2 Pan, 17.7 m
Radar Cross Section
36.964 m², Large (>1 m²)

Expand to show TLE details & history
Last TLE update: 16 hours ago

TLE from 16 hours ago
0 STARLINK-34032
1 63853U 25093T   25348.94618301  .00013287  00000-0  49166-3 0  9998
2 63853  42.9990 196.3062 0001504 266.9288  93.1391 15.27567333 35015
Epoch: 2025-12-14T22:42Z
TLE epoch observation values (Epoch: 2025-12-14T22:42:30.212Z)
Latitude
-0.00004°
Longitude
131.82847°
Altitude
482.919 km
Speed
7.626 km/s
True Right ascension
13h 05m 13s
True Declination
0° 00' 00"
Sunlit
Object was in daylight at epoch
Visualization orbit readout
Latitude
Unknown
Longitude
Unknown
Altitude
Unknown
Speed
Unknown
Apparent Right ascension
Unknown
Apparent Declination
Unknown
Sunlit
N/A
Visualization observer readout
Local Sidereal Time
13:25:39
Azimuth
Unknown
Elevation
Unknown
Doppler factor
Unknown
Orbital elements
Apogee altitude
486.065 km
Perigee altitude
484 km
Semi-major axis
6,863.169 km
Eccentricity
0.00015
Inclination
42.999°
RAAN
196.3062°
Arg. of periapsis
266.9288°
True anomaly
93.15631°
Mean anomaly
93.1391°
Eccentric anomaly
93.1477°
Mean motion
3.8173 °/min
Orbital period
94.31 mins
BSTAR
0.00049166
Loading maneuver chart data...
Computing Atmospheric mass density...
Loading historical data...
Loading historical data...
Loading historical data...
Loading historical data...
Loading historical data...
Loading historical data...
Loading historical data...

Documentation

Showing up to 5 results
|